#timestamp,LO_Frequency,Hit,StdDev 
1458633615.6,286047000.8,N
1458633635.4,286047000.1,N
1458633655.2,286046996.8,N
1458633675.1,286046999.6,N
1458633676.0,286046999.6,N
1458633695.8,286046997.6,N
1458633715.6,286046995.9,N
1458633735.5,286046996.7,N
1458633755.3,286046995.9,N
1458633775.1,286046994.2,Y
1458633795.9,286046997.0,P
1458633815.7,286046996.8,P
1458633835.5,286046997.9,P
1458633855.4,286046993.7,Y
1458633875.2,286046996.1,P
1458633895.0,286046998.0,P
1458633895.9,286046998.0,N
1458633915.8,286046996.1,Y
1458633935.6,286046995.7,P
1458633955.4,286046999.8,N
1458633975.3,286047002.0,N
1458633995.1,286047005.6,N
1458633996.0,286047005.6,N
1458634015.8,286047006.0,N
1458634035.7,286047007.2,N
1458634055.5,286047007.5,N
1458634075.3,286047006.3,N
1458634095.1,286047007.7,N
1458634115.9,286047008.9,N
1458634135.7,286047011.1,N
1458634155.5,286047008.6,N
1458634175.4,286047006.2,N
1458634195.2,286047005.4,N
1458634215.0,286047007.6,N
1458634215.9,286047007.6,N
1458634235.8,286047007.8,N
1458634255.6,286047007.6,N
1458634275.4,286047004.5,N
1458634295.3,286047001.5,N
1458634315.1,286047002.8,N
1458634316.0,286047002.8,N
1458634335.8,286047000.1,N
1458634355.7,286046998.3,N
1458634375.5,286046996.8,N
1458634395.3,286046998.6,N
1458634415.1,286046998.9,N
1458634435.9,286047000.7,N
1458634455.7,286047001.0,N
1458634475.5,286047004.4,N
1458634495.4,286047002.9,N
1458634515.2,286047003.6,N
1458634535.0,286047002.5,N
1458634535.9,286047002.5,N
1458634555.8,286047001.2,N
1458634575.6,286047000.7,N
1458634595.4,286046995.1,N
1458634615.3,286046993.5,N
1458634635.1,286046993.6,N
1458634636.0,286046993.6,N
1458634655.8,286046996.2,N
1458634675.7,286046995.3,N
1458634695.5,286046997.4,N
1458634715.3,286046999.5,N
1458634735.2,286046999.6,N
1458634755.9,286046999.4,N
1458634775.7,286046997.6,N
1458634795.6,286046996.3,N
1458634815.4,286046995.0,N
1458634835.2,286046995.3,N
1458634855.0,286046992.4,N
1458634855.9,286046992.4,N
1458634875.8,286046988.7,Y
1458634895.6,286046990.6,P
1458634915.5,286046992.0,N
1458634935.3,286046994.2,N
1458634955.1,286046995.5,N
1458634975.8,286046999.1,N
1458634995.7,286046995.2,N
1458635015.5,286046996.4,N
1458635035.3,286046998.0,N
1458635055.2,286046998.8,N
1458635075.9,286046997.4,N
1458635095.7,286046994.5,N
1458635115.6,286046992.5,N
1458635135.4,286046994.4,N
1458635155.2,286046995.6,N
1458635175.1,286046997.8,N
1458635176.0,286046997.8,N
1458635195.8,286046996.1,N
1458635215.6,286046993.3,N
1458635235.5,286046993.3,N
1458635255.3,286046992.2,Y
1458635275.1,286046994.5,P
1458635295.9,286046993.8,P
1458635315.7,286046995.2,P
1458635335.5,286046995.5,Y
1458635355.4,286046999.6,P
1458635375.2,286046999.5,N
1458635395.0,286046999.6,N
1458635395.9,286046999.6,N
1458635415.8,286047000.4,N
1458635435.6,286047001.2,N
1458635455.4,286047001.8,N
1458635475.2,286047000.2,N
1458635495.1,286047002.2,N
1458635496.0,286047002.2,N
1458635515.8,286046999.5,N
1458635535.6,286046998.4,N
1458635555.5,286046999.0,N
1458635575.3,286046996.7,N
1458635595.1,286046995.6,N
1458635615.9,286046999.4,N
1458635635.7,286046999.3,N
1458635655.5,286046997.8,N
1458635675.4,286046994.9,N
1458635695.2,286046995.0,N
1458635715.0,286046997.2,N
1458635715.9,286046997.2,N
1458635735.8,286046997.5,N
1458635755.6,286046995.5,N
1458635775.4,286046995.2,N
1458635795.2,286046997.5,N
1458635815.1,286047001.1,N
1458635816.0,286047001.1,N
1458635835.8,286046999.9,N
1458635855.6,286047002.1,N
1458635875.5,286046998.8,N
1458635895.3,286046999.1,N
1458635915.1,286046999.0,N
1458635935.9,286047000.6,N
1458635955.7,286046996.5,N
1458635975.5,286046998.0,N
1458635995.4,286046998.5,N
1458636015.2,286046998.5,N
1458636035.0,286047000.8,N
1458636035.9,286047000.8,N
1458636055.8,286046999.5,N
1458636075.6,286046997.7,N
1458636095.4,286046994.5,N
1458636115.3,286046990.2,Y
1458636135.1,286046994.5,P
1458636136.0,286046994.5,P
1458636155.8,286046994.5,P
1458636175.7,286046991.5,Y
1458636195.5,286046990.5,P
1458636215.3,286046992.7,N
1458636235.2,286046989.0,P
1458636255.9,286046990.0,Y
1458636275.7,286046994.6,P
1458636295.6,286046994.7,P
1458636315.4,286046993.2,P
1458636335.2,286046989.1,Y
1458636355.1,286046997.3,P
1458636356.0,286046997.3,N
1458636375.8,286046995.6,N
1458636395.6,286046997.4,N
1458636415.5,286046995.8,N
1458636435.3,286046994.0,Y
1458636455.1,286047000.9,P
1458636475.9,286047002.8,N
1458636495.7,286047003.7,N
1458636515.5,286046999.7,N
1458636535.3,286046998.5,N
1458636555.2,286047002.3,N
1458636575.0,286046998.1,N
1458636575.9,286046998.1,N
1458636595.7,286046996.9,N
1458636615.6,286047002.7,N
1458636635.4,286047002.6,N
1458636655.2,286047004.3,N
1458636675.1,286047004.7,N
1458636676.0,286047004.7,N
1458636695.8,286047002.9,N
1458636715.6,286047009.2,Y
1458636735.5,286047006.1,P
1458636755.3,286047006.8,N
1458636775.1,286047006.6,N
1458636795.9,286047009.3,Y
1458636815.7,286047005.6,P
1458636835.5,286047010.8,P
1458636855.4,286047015.5,P
1458636875.2,286047017.1,Y
1458636895.0,286047006.5,P
1458636895.9,286047006.5,P
1458636915.8,286047008.9,P
1458636935.6,286047007.9,Y
1458636955.4,286047003.5,P
1458636975.3,286047006.0,N
1458636995.1,286047006.8,P
1458637015.8,286047006.7,Y
1458637035.7,286046999.9,P
1458637055.5,286047000.2,N
1458637075.3,286047004.7,N
1458637095.2,286047007.4,N
1458637115.9,286047009.1,N
1458637135.7,286047009.1,N
1458637155.6,286047008.9,N
1458637175.4,286047009.5,N
1458637195.2,286047009.4,N
